Погода в Октябрьском

Россия / Ульяновская область     54°20′30″N   48°42′27″E
темп.,
°C
ветер,
м/с
пор.,
м/с
влажн.,
%
обл.,
%
осадки,
мм/ч
давл.,
гПа
погр.,
м
26 октября, вт
вт2601:000сз357199 0.0 1028129
04:00−1з46735 0.0 1028100
07:00−1зюз48755 0.0 1027219
10:00+1зюз6106199 0.0 1027477
13:00+4зюз79455 0.0 1025745
16:00+5зюз711485 0.0 1024841
19:00+3зюз6125991 0.0 1024390
22:00+2зюз6116699 0.0 1023352
27 октября, ср
ср2701:00+2зюз6106890 0.0 1023334
04:00+2зюз61068100 0.0 1022342
07:00+2зюз6116899 0.0 1021340
10:00+4зюз61258100 0.0 1021510
13:00+7зюз7124566 0.0 1019708
16:00+8юз71344100 0.0 1018714
19:00+6юз7144698 0.0 1017523
22:00+5юз8154417 0.0 1015606
28 октября, чт
чт2801:00+4юз81447100 0.0 1014553
04:00+4зюз81574100 0.1 1013793
07:00+5зюз71276100 0.0 1012650
10:00+6зюз71179100 0.1 1013636
13:00+8зюз61065100 0.1 10131203
16:00+8зюз5863100 0.1 1012773
19:00+7юз4869100 0.0 1012266
22:00+7зюз5777100 0.1 1012502
29 октября, пт
пт2901:00+6юз2492100 1.8 1011523
04:00+5с5792100 4.9 1013934
07:000ссв9147379 0.9 1019705
10:00−1ссв813645 0.9 1024788
13:00+1ссв810470 0.0 1027909
16:000ссв59460 0.0 1030832
19:00−3ссв37611 0.0 1033168
22:00−3всв236222 0.0 103456
30 октября, сб
сб3001:00−3юв11615 0.0 103410
04:00−3юз235978 0.0 103444
07:000зюз485486 0.0 1034304
10:00+1зюз5104396 0.0 1033418
13:00+4зюз6123795 0.0 1032536
16:00+5з61043100 0.0 1031376
19:00+2зюз510565 0.0 1032214
22:00+2зюз59609 0.0 1031186